DW7214 Weather Reports


time (UTC)temp
C
wind
direction
speed
KPH
gust
KPH
rain 1hr
cm
rain 24hr
cm
rain mn
cm
humidity
%
barometer
mb
20260903200033 13 96 1.6 6.4 0.48 2.08 1.73 90 1010.6
20260903194533 13 113 0.0 9.7 0.46 2.01 1.65 92 1010.7
20260903193030 13 117 0.0 11.3 0.30 1.85 1.47 92 1010.6
20260903191544 13 109 3.2 8.0 0.20 1.78 1.40 91 1010.6
20260903190030 14 214 3.2 16.1 0.05 1.65 1.24 87 1010.8
20260903184513 15 146 6.4 14.5 0.00 1.60 1.19 86 1010.4
20260903183033 14 38 0.0 12.9 0.00 1.65 1.19 87 1010.4
20260903181528 13 44 1.6 9.7 0.00 1.85 1.19 89 1010.6
20260903180036 14 188 4.8 16.1 0.00 1.93 1.19 88 1010.5
20260903174520 14 146 3.2 8.0 0.00 1.93 1.19 88 1010.4
20260903173018 14 9 1.6 6.4 0.00 1.96 1.19 90 1010.4
20260903171528 13 161 3.2 12.9 0.03 2.06 1.19 91 1010.3
20260903170031 13 111 1.6 9.7 0.10 2.13 1.19 91 1010.3
20260903164530 13 98 1.6 8.0 0.13 2.18 1.19 93 1010.4
20260903163019 13 77 0.0 4.8 0.15 2.29 1.19 94 1010.6
20260903161533 12 109 1.6 3.2 0.25 2.36 1.17 94 1010.7
20260903160027 12 186 0.0 12.9 0.25 2.39 1.09 93 1011.0
20260903154533 12 111 0.0 4.8 0.28 2.41 1.07 94 1011.0
20260903153030 12 215 0.0 6.4 0.36 2.41 1.04 94 1011.0
20260903151522 12 103 1.6 9.7 0.25 2.29 0.91 94 1011.0
20260903150029 12 135 1.6 6.4 0.18 2.21 0.84 94 1010.9
20260903144530 12 120 4.8 17.7 0.15 2.16 0.79 93 1010.8
20260903143038 12 90 3.2 16.1 0.08 2.06 0.69 94 1010.5
20260903141532 12 134 1.6 9.7 0.05 2.03 0.66 94 1010.2
20260903140026 12 76 1.6 8.0 0.10 2.03 0.66 94 1010.2
20260903134528 12 188 0.0 6.4 0.10 2.01 0.64 94 1010.1
20260903133031 12 168 3.2 9.7 0.13 1.98 0.61 94 1010.0
20260903131536 12 114 3.2 12.9 0.20 1.98 0.61 94 1009.8
20260903130024 12 95 0.0 4.8 0.38 1.93 0.56 94 1009.9
20260903124547 12 90 1.6 9.7 0.41 1.91 0.53 94 1009.9
20260903123029 12 124 1.6 6.4 0.41 1.85 0.48 93 1010.0
20260903121533 12 105 0.0 14.5 0.36 1.78 0.41 93 1010.2
20260903120024 12 119 0.0 9.7 0.18 1.55 0.18 93 1010.2
20260903114526 12 115 0.0 4.8 0.13 1.47 0.13 93 1010.2
20260903113032 12 181 1.6 11.3 0.08 1.45 0.08 92 1010.2
20260903111532 12 148 1.6 12.9 0.05 1.42 0.05 92 1010.2
20260903110019 12 148 1.6 9.7 0.00 1.37 0.00 92 1010.2
20260903104527 12 169 3.2 12.9 0.00 1.37 0.00 92 1010.0
20260903103030 12 175 6.4 16.1 0.00 1.37 0.00 91 1010.1
20260903101535 12 119 1.6 8.0 0.00 1.37 0.00 91 1010.2
20260903100023 12 173 0.0 11.3 0.00 1.37 0.00 91 1010.1
20260903094524 12 160 3.2 11.3 0.00 1.37 0.00 91 1010.1
20260903093004 12 5 1.6 9.7 0.00 1.37 0.00 92 1010.1
20260903091512 12 205 0.0 9.7 0.00 1.37 0.00 92 1010.2
20260903090011 12 166 1.6 8.0 0.00 1.37 0.00 91 1010.2
20260903084520 12 96 3.2 14.5 0.00 1.37 0.00 92 1010.4
20260903083028 12 121 3.2 8.0 0.00 1.37 0.00 91 1010.4
20260903081504 12 134 1.6 8.0 0.00 1.37 0.00 91 1010.4
20260903080009 13 116 3.2 11.3 0.00 1.37 0.00 91 1010.6
20260903074518 13 165 4.8 11.3 0.00 1.37 0.00 91 1010.6
20260903073028 13 124 4.8 11.3 0.00 1.37 0.00 91 1010.6
20260903071505 13 169 1.6 14.5 0.00 1.37 0.00 91 1010.4
20260903070008 13 124 3.2 9.7 0.00 1.37 0.00 92 1010.3
20260903064512 12 145 1.6 6.4 0.00 1.37 1.37 92 1010.3
20260903063020 13 140 1.6 6.4 0.00 1.37 1.37 92 1010.4
20260903061527 13 123 0.0 6.4 0.00 1.37 1.37 92 1010.5
20260903060005 13 99 0.0 6.4 0.00 1.37 1.37 92 1010.4
20260903054512 12 121 0.0 3.2 0.00 1.37 1.37 91 1010.6
20260903053018 12 126 0.0 3.2 0.00 1.37 1.37 91 1010.6
20260903051526 12 103 0.0 3.2 0.00 1.37 1.37 91 1010.5
20260903050035 12 108 0.0 0.0 0.00 1.37 1.37 92 1010.5
20260903044509 12 108 0.0 3.2 0.00 1.37 1.37 92 1010.5
20260903043015 12 123 0.0 0.0 0.00 1.37 1.37 91 1010.2
20260903041517 12 116 0.0 0.0 0.00 1.37 1.37 89 1010.2
20260903040030 12 119 0.0 1.6 0.00 1.37 1.37 88 1010.1
20260903034530 12 149 0.0 4.8 0.00 1.37 1.37 89 1009.9
20260903033013 12 203 3.2 4.8 0.00 1.37 1.37 89 1009.7
20260903031518 13 119 0.0 0.0 0.00 1.37 1.37 86 1009.3
20260903030029 13 177 0.0 3.2 0.00 1.37 1.37 84 1009.3
20260903024531 14 186 0.0 3.2 0.00 1.37 1.37 82 1009.1
20260903023036 15 186 0.0 12.9 0.00 1.37 1.37 80 1009.1
20260903021513 15 181 0.0 3.2 0.00 1.37 1.37 79 1008.9
20260903020034 15 157 1.6 9.7 0.00 1.37 1.37 78 1008.7
20260903014527 16 157 0.0 12.9 0.00 1.37 1.37 80 1008.8
20260903013029 15 205 3.2 9.7 0.00 1.37 1.37 80 1008.6
20260903011514 16 135 4.8 12.9 0.00 1.37 1.37 79 1008.5
20260903010018 16 161 0.0 11.3 0.00 1.37 1.37 80 1008.5
20260903004525 16 138 0.0 11.3 0.00 1.37 1.37 81 1008.2
20260903003027 16 128 3.2 9.7 0.00 1.37 1.37 82 1008.2
20260903001534 16 136 1.6 6.4 0.00 1.37 1.37 83 1008.1
20260903000016 16 115 3.2 11.3 0.03 1.37 1.37 87 1008.0
20260902234523 16 97 1.6 8.0 0.03 1.37 1.37 88 1007.9
20260902233027 15 157 0.0 1.6 0.03 1.37 1.37 89 1007.9
20260902231532 15 141 0.0 9.7 0.03 1.37 1.37 88 1007.9
20260902230037 15 111 1.6 6.4 0.03 1.32 1.32 88 1007.9
20260902224519 15 96 1.6 8.0 0.03 1.32 1.32 90 1007.5
20260902223048 15 151 0.0 12.9 0.25 1.32 1.32 89 1007.3
20260902221531 15 134 3.2 14.5 0.33 1.32 1.32 91 1007.2
20260902220032 15 139 3.2 11.3 0.30 1.32 1.32 1007.1
20260902214516 14 180 3.2 14.5 0.30 1.32 1.32 1007.1
20260902213025 15 132 4.8 14.5 0.08 1.09 1.09 91 1006.8
20260902211526 15 189 3.2 17.7 0.00 1.02 1.02 91 1006.7
20260902210031 15 215 9.7 20.9 0.00 1.02 1.02 91 1006.7
20260902204544 14 202 3.2 20.9 0.00 1.02 1.02 92 1006.6
20260902203021 14 135 6.4 20.9 0.00 1.02 1.02 92 1006.5
20260902201528 14 321 1.6 14.5 0.03 1.02 1.02 92 1006.4